• In Czech Republic
  • List of Countries
  • For 7 days
  • Water Temperature
  • Satellite Maps
  • Weather Map
  • Weather Widgets
  • user-avatar
    Login

    Hourly Weather Tula

    Today, 24 November, Friday

    Time Temperature Precipitation Wind Pressure Humidity
    00:00 +11°C° 0 mm 1 mps 657 mmHg 76%
    01:00 +10°C° 0 mm 1 mps 657 mmHg 77%
    02:00 +9°C° 0 mm 0 mps 656 mmHg 78%
    03:00 +10°C° 0 mm 1 mps 656 mmHg 77%
    04:00 +10°C° 0 mm 1 mps 656 mmHg 77%
    05:00 +10°C° 0 mm 1 mps 656 mmHg 76%
    06:00 +12°C° 0 mm 1 mps 657 mmHg 67%
    07:00 +14°C° 0 mm 1 mps 657 mmHg 59%
    08:00 +15°C° 0 mm 0 mps 658 mmHg 50%
    09:00 +19°C° 0 mm 1 mps 658 mmHg 44%
    10:00 +21°C° 0 mm 1 mps 658 mmHg 37%
    11:00 +23°C° 0 mm 1 mps 659 mmHg 31%
    12:00 +23°C° 0 mm 1 mps 658 mmHg 30%
    13:00 +23°C° 0 mm 1 mps 658 mmHg 29%
    14:00 +24°C° 0 mm 1 mps 657 mmHg 28%
    15:00 +22°C° 0 mm 1 mps 656 mmHg 35%
    16:00 +19°C° 0 mm 1 mps 656 mmHg 42%
    17:00 +16°C° 0 mm 1 mps 655 mmHg 49%
    18:00 +15°C° 0 mm 1 mps 655 mmHg 54%
    19:00 +14°C° 0 mm 1 mps 655 mmHg 58%
    20:00 +13°C° 0 mm 1 mps 656 mmHg 63%
    21:00 +13°C° 0 mm 1 mps 655 mmHg 62%
    22:00 +13°C° 0 mm 1 mps 655 mmHg 62%
    23:00 +13°C° 0 mm 1 mps 655 mmHg 61%

    Tomorrow, 25 November, Saturday

    Time Temperature Precipitation Wind Pressure Humidity
    00:00 +13°C° 0 mm 1 mps 655 mmHg 58%
    01:00 +12°C° 0 mm 1 mps 655 mmHg 56%
    02:00 +12°C° 0 mm 1 mps 655 mmHg 53%
    03:00 +12°C° 0 mm 1 mps 655 mmHg 50%
    04:00 +12°C° 0 mm 1 mps 655 mmHg 47%
    05:00 +12°C° 0 mm 2 mps 655 mmHg 45%
    06:00 +15°C° 0 mm 1 mps 656 mmHg 40%
    07:00 +18°C° 0 mm 1 mps 657 mmHg 36%
    08:00 +20°C° 0 mm 1 mps 658 mmHg 31%
    09:00 +22°C° 0 mm 1 mps 658 mmHg 27%
    10:00 +25°C° 0 mm 2 mps 659 mmHg 23%
    11:00 +27°C° 0 mm 2 mps 659 mmHg 18%
    12:00 +27°C° 0 mm 2 mps 659 mmHg 19%
    13:00 +28°C° 0 mm 1 mps 658 mmHg 19%
    14:00 +28°C° 0 mm 1 mps 658 mmHg 20%
    15:00 +25°C° 0 mm 1 mps 657 mmHg 28%
    16:00 +23°C° 0 mm 1 mps 657 mmHg 37%
    17:00 +20°C° 0 mm 1 mps 657 mmHg 46%
    18:00 +19°C° 0 mm 1 mps 657 mmHg 50%
    19:00 +18°C° 0 mm 1 mps 658 mmHg 55%
    20:00 +16°C° 0 mm 1 mps 658 mmHg 60%
    21:00 +16°C° 0 mm 1 mps 658 mmHg 59%
    22:00 +15°C° 0 mm 1 mps 658 mmHg 59%
    23:00 +15°C° 0 mm 1 mps 659 mmHg 58%

    Day after tomorrow, 26 November, Sunday

    Time Temperature Precipitation Wind Pressure Humidity
    00:00 +14°C° 0 mm 1 mps 658 mmHg 57%
    01:00 +14°C° 0 mm 1 mps 658 mmHg 56%
    02:00 +14°C° 0 mm 1 mps 658 mmHg 55%
    03:00 +13°C° 0 mm 1 mps 658 mmHg 54%
    04:00 +13°C° 0 mm 1 mps 659 mmHg 53%
    05:00 +13°C° 0 mm 1 mps 659 mmHg 52%
    06:00 +15°C° 0 mm 1 mps 660 mmHg 48%
    07:00 +18°C° 0 mm 1 mps 661 mmHg 43%
    08:00 +20°C° 0 mm 1 mps 663 mmHg 39%
    09:00 +21°C° 0 mm 1 mps 663 mmHg 36%
    10:00 +21°C° 0 mm 2 mps 663 mmHg 33%
    11:00 +23°C° 0 mm 2 mps 663 mmHg 31%
    12:00 +24°C° 0 mm 2 mps 662 mmHg 31%
    13:00 +24°C° 0 mm 2 mps 662 mmHg 31%
    14:00 +24°C° 0 mm 3 mps 661 mmHg 31%
    15:00 +21°C° 0 mm 2 mps 660 mmHg 38%
    16:00 +19°C° 0 mm 2 mps 660 mmHg 45%
    17:00 +17°C° 0 mm 2 mps 660 mmHg 51%
    18:00 +16°C° 0 mm 2 mps 660 mmHg 55%
    19:00 +15°C° 0 mm 1 mps 660 mmHg 58%
    20:00 +14°C° 0 mm 1 mps 661 mmHg 62%
    21:00 +13°C° 0 mm 1 mps 661 mmHg 64%
    22:00 +13°C° 0 mm 1 mps 660 mmHg 67%
    23:00 +13°C° 0 mm 1 mps 660 mmHg 69%

    27 November, Monday

    Time Temperature Precipitation Wind Pressure Humidity
    00:00 +12°C° 0 mm 1 mps 660 mmHg 71%
    01:00 +12°C° 0 mm 1 mps 659 mmHg 73%
    02:00 +12°C° 0 mm 1 mps 659 mmHg 75%
    03:00 +12°C° 0 mm 1 mps 659 mmHg 76%
    04:00 +11°C° 0 mm 1 mps 658 mmHg 77%
    05:00 +11°C° 0 mm 1 mps 658 mmHg 77%
    06:00 +12°C° 0 mm 0 mps 659 mmHg 70%
    07:00 +14°C° 0 mm 0 mps 660 mmHg 63%
    08:00 +16°C° 0 mm 0 mps 661 mmHg 55%
    09:00 +19°C° 0 mm 1 mps 661 mmHg 51%
    10:00 +21°C° 0 mm 1 mps 661 mmHg 47%
    11:00 +22°C° 0 mm 1 mps 661 mmHg 42%
    12:00 +23°C° 0 mm 1 mps 660 mmHg 42%
    13:00 +23°C° 0 mm 2 mps 659 mmHg 41%
    14:00 +24°C° 0 mm 2 mps 658 mmHg 40%
    15:00 +21°C° 0 mm 2 mps 658 mmHg 48%
    16:00 +19°C° 0 mm 2 mps 657 mmHg 57%
    17:00 +17°C° 0 mm 2 mps 657 mmHg 65%
    18:00 +16°C° 0 mm 1 mps 657 mmHg 72%
    19:00 +15°C° 0 mm 1 mps 657 mmHg 78%
    20:00 +14°C° 0 mm 1 mps 658 mmHg 85%
    21:00 +14°C° 0 mm 1 mps 657 mmHg 87%
    22:00 +14°C° 0 mm 1 mps 657 mmHg 90%
    23:00 +13°C° 0 mm 1 mps 657 mmHg 92%

    28 November, Tuesday

    Time Temperature Precipitation Wind Pressure Humidity
    00:00 +13°C° 0 mm 1 mps 656 mmHg 92%
    01:00 +13°C° 0 mm 1 mps 656 mmHg 93%
    02:00 +13°C° 0 mm 1 mps 655 mmHg 93%
    03:00 +12°C° 0 mm 1 mps 655 mmHg 93%
    04:00 +12°C° 0 mm 1 mps 655 mmHg 92%
    05:00 +12°C° 0 mm 1 mps 655 mmHg 92%
    06:00 +14°C° 0 mm 1 mps 656 mmHg 83%
    07:00 +16°C° 0 mm 1 mps 657 mmHg 75%
    08:00 +18°C° 0 mm 1 mps 658 mmHg 67%
    09:00 +20°C° 0 mm 1 mps 658 mmHg 58%
    10:00 +23°C° 0 mm 1 mps 658 mmHg 49%
    11:00 +25°C° 0 mm 1 mps 658 mmHg 41%
    12:00 +25°C° 0 mm 1 mps 657 mmHg 39%
    13:00 +26°C° 0 mm 2 mps 657 mmHg 37%
    14:00 +26°C° 0 mm 2 mps 656 mmHg 36%
    15:00 +24°C° 0 mm 2 mps 656 mmHg 46%
    16:00 +21°C° 0 mm 2 mps 656 mmHg 56%
    17:00 +19°C° 0 mm 2 mps 655 mmHg 65%
    18:00 +19°C° 0 mm 1 mps 656 mmHg 72%
    19:00 +18°C° 0 mm 1 mps 656 mmHg 79%
    20:00 +15°C° 0 mm 1 mps 657 mmHg 86%
    21:00 +15°C° 0 mm 1 mps 657 mmHg 88%
    22:00 +15°C° 0 mm 1 mps 657 mmHg 90%
    23:00 +14°C° 0 mm 0 mps 657 mmHg 92%

    29 November, Wednesday

    Time Temperature Precipitation Wind Pressure Humidity
    00:00 +13°C° 0 mm 0 mps 657 mmHg 93%
    01:00 +13°C° 0 mm 0 mps 657 mmHg 93%
    02:00 +13°C° 0 mm 0 mps 656 mmHg 94%
    03:00 +13°C° 0 mm 0 mps 657 mmHg 94%
    04:00 +12°C° 0 mm 0 mps 657 mmHg 94%
    05:00 +12°C° 0 mm 0 mps 657 mmHg 94%
    06:00 +14°C° 0 mm 1 mps 658 mmHg 89%
    07:00 +16°C° 0 mm 1 mps 659 mmHg 84%
    08:00 +18°C° 0 mm 1 mps 661 mmHg 79%
    09:00 +19°C° 0 mm 1 mps 661 mmHg 70%
    10:00 +20°C° 0 mm 2 mps 661 mmHg 61%
    11:00 +21°C° 0 mm 2 mps 661 mmHg 52%
    12:00 +23°C° 0 mm 2 mps 661 mmHg 51%
    13:00 +22°C° 0 mm 3 mps 660 mmHg 50%
    14:00 +22°C° 0 mm 3 mps 660 mmHg 49%
    15:00 +21°C° 0 mm 3 mps 660 mmHg 57%
    16:00 +19°C° 0 mm 2 mps 660 mmHg 65%
    17:00 +17°C° 0 mm 2 mps 660 mmHg 73%
    18:00 +17°C° 0 mm 2 mps 660 mmHg 78%
    19:00 +16°C° 0 mm 1 mps 660 mmHg 83%
    20:00 +15°C° 0 mm 1 mps 660 mmHg 88%
    21:00 +15°C° 0 mm 1 mps 660 mmHg 90%
    22:00 +14°C° 0 mm 1 mps 660 mmHg 91%
    23:00 +13°C° 0 mm 0 mps 660 mmHg 93%
    Show more